DO2KZW-13 Weather Reports


Display with metric or nautical units.
time (UTC)temp
F
wind
direction
speed
MPH
gust
MPH
rain 1hr
in
rain 24hr
in
rain mn
in
humidity
%
barometer
mb
20210126043527 32 360 0.0 0.0 0.00 0.00 0.00 63 1013.4
20210126033531 31 360 0.0 0.0 0.00 0.00 0.00 63 1013.4
20210126023546 31 360 0.0 0.0 0.00 0.00 0.00 61 1013.4
20210126013526 31 360 0.0 0.0 0.00 0.00 0.00 61 1012.4
20210126003536 32 360 0.0 0.0 0.00 0.00 0.00 61 1011.4
20210125233527 33 360 0.0 0.0 0.00 0.00 0.00 65 1011.4
20210125223526 33 360 0.0 0.0 0.00 0.00 0.00 68 1010.4
20210125213533 35 360 0.0 0.0 0.00 0.00 0.00 66 1010.4
20210125203533 35 360 0.0 0.0 0.00 0.00 0.00 65 1009.4
20210125193527 34 360 0.0 0.0 0.00 0.00 0.00 65 1008.4
20210125173533 35 360 0.0 0.0 0.00 0.00 0.00 64 1005.4
20210125163528 36 360 0.0 0.0 0.00 0.00 0.00 62 1004.4
20210125153537 36 360 0.0 0.0 0.00 0.00 0.00 61 1003.4
20210125143529 37 360 0.0 0.0 0.00 0.00 0.00 57 1002.4
20210125133543 40 360 0.0 0.0 0.00 0.00 0.00 58 1001.4
20210125123536 39 360 0.0 0.0 0.00 0.00 0.00 61 1001.4
20210125113537 39 360 0.0 0.0 0.00 0.00 0.00 62 1000.4
20210125103544 36 360 0.0 0.0 0.00 0.00 0.00 65 1000.4
20210125093537 34 360 0.0 0.0 0.00 0.00 0.00 66 999.4
20210125083533 32 360 0.0 0.0 0.00 0.00 0.00 66 999.4
20210125073537 33 360 0.0 0.0 0.00 0.00 0.00 67 998.4
20210125063531 31 360 0.0 0.0 0.00 0.00 0.00 64 997.4
20210125053539 31 360 0.0 0.0 0.00 0.00 0.00 64 997.4